This is the latest recevied weather packets stored in our database for station/object SV9TNF-1. If no packets are shown the sender has not sent any weather packets the latest 10 day(s).
| Time | Temp. | Humidity | Pressure | Rain* | Wind** | Luminosity | Snow |
|---|---|---|---|---|---|---|---|
| 1778214977 | 18.33° C | 68% | 1003.7 hPa | 0 mm | 1.79 m/s, 119° | - | - |
| 1778214678 | 18.33° C | 70% | 1003.7 hPa | 0 mm | 4.92 m/s, 112° | - | - |
| 1778214377 | 18.33° C | 67% | 1003.7 hPa | 0 mm | 0.89 m/s, 120° | - | - |
| 1778214078 | 18.33° C | 64% | 1003.7 hPa | 0 mm | 1.34 m/s, 103° | - | - |
| 1778213777 | 17.78° C | 64% | 1003.7 hPa | 0 mm | 1.79 m/s, 111° | - | - |
| 1778213477 | 17.78° C | 65% | 1004.1 hPa | 0 mm | 1.34 m/s, 103° | - | - |
| 1778213176 | 17.78° C | 66% | 1004.1 hPa | 0 mm | 2.24 m/s, 131° | - | - |
| 1778212877 | 17.78° C | 68% | 1004.1 hPa | 0 mm | 3.13 m/s, 128° | - | - |
| 1778212576 | 17.78° C | 68% | 1004.1 hPa | 0 mm | 1.79 m/s, 124° | - | - |
| 1778212276 | 17.78° C | 67% | 1004.1 hPa | 0 mm | 3.13 m/s, 117° | - | - |
| 1778211976 | 17.78° C | 68% | 1004.1 hPa | 0 mm | 0.89 m/s, 126° | - | - |
| 1778211676 | 17.78° C | 67% | 1004.1 hPa | 0 mm | 0 m/s | - | - |
| 1778211376 | 17.78° C | 67% | 1004.7 hPa | 0 mm | 0.89 m/s, 128° | - | - |
| 1778211076 | 17.22° C | 70% | 1004.7 hPa | 0 mm | 0 m/s | - | - |
| 1778210776 | 17.22° C | 69% | 1004.7 hPa | 0 mm | 0 m/s | - | - |
| 1778210476 | 17.78° C | 68% | 1004.7 hPa | 0 mm | 0 m/s | - | - |
| 1778210176 | 17.78° C | 67% | 1004.7 hPa | 0 mm | 0 m/s | - | - |
| 1778209876 | 17.78° C | 65% | 1004.7 hPa | 0 mm | 0.45 m/s, 138° | - | - |
| 1778209575 | 18.33° C | 66% | 1004.7 hPa | 0 mm | 0 m/s | - | - |
| 1778209275 | 18.33° C | 63% | 1004.7 hPa | 0 mm | 0 m/s | - | - |
| 1778208975 | 18.89° C | 63% | 1004.1 hPa | 0 mm | 0 m/s | - | - |
| 1778208675 | 18.89° C | 58% | 1004.1 hPa | 0 mm | 1.34 m/s, 121° | - | - |
| 1778208375 | 19.44° C | 57% | 1004.1 hPa | 0 mm | 0.89 m/s, 127° | - | - |
| 1778208075 | 19.44° C | 57% | 1004.1 hPa | 0 mm | 1.34 m/s, 121° | - | - |
| 1778207775 | 19.44° C | 56% | 1003.7 hPa | 0 mm | 0.89 m/s, 121° | - | - |
* Rain latest hour (hover to see other rain measurements)
** Current wind speed in m/s (hover to see current wind gust speed)